K5LRY-13 Weather Reports


Display with metric or nautical units.
time (UTC)temp
F
wind
direction
speed
MPH
gust
MPH
rain 1hr
in
rain 24hr
in
rain mn
in
humidity
%
barometer
mb
20260505040317 51 260 4.0 13.0 0.00 0.00 0.00 31 1020.2
20260505034815 51 265 1.0 3.0 0.00 0.00 0.00 32 1020.3
20260505033330 51 265 0.0 3.0 0.00 0.00 0.00 31 1020.1
20260505031823 52 265 0.0 3.0 0.00 0.00 0.00 30 1020.2
20260505030318 52 264 2.0 8.0 0.00 0.00 0.00 30 1020.2
20260505024832 52 264 3.0 9.0 0.00 0.00 0.00 29 1019.9
20260505023328 53 252 3.0 11.0 0.00 0.00 0.00 28 1019.9
20260505021812 53 255 1.0 9.0 0.00 0.00 0.00 28 1020.0
20260505020327 53 266 3.0 12.0 0.00 0.00 0.00 27 1020.1
20260505014822 54 266 5.0 18.0 0.00 0.00 0.00 26 1020.0
20260505013317 54 284 7.0 14.0 0.00 0.00 0.00 25 1020.1
20260505011830 55 259 8.0 19.0 0.00 0.00 0.00 23 1020.3
20260505010344 55 260 7.0 18.0 0.00 0.00 0.00 21 1019.9
20260505004817 56 263 9.0 15.0 0.00 0.00 0.00 21 1020.0
20260505003311 57 236 7.0 15.0 0.00 0.00 0.00 20 1020.2
20260505001824 57 247 7.0 17.0 0.00 0.00 0.00 18 1020.3
20260505000318 57 285 8.0 16.0 0.00 0.00 0.00 18 1020.3
20260504234831 57 248 7.0 20.0 0.00 0.00 0.00 17 1020.3
20260504233328 58 264 7.0 19.0 0.00 0.00 0.00 16 1020.2
20260504231841 58 239 8.0 23.0 0.00 0.00 0.00 15 1020.3
20260504230336 61 212 7.0 23.0 0.00 0.00 0.00 14 1020.2
20260504224829 60 266 5.0 19.0 0.00 0.00 0.00 16 1020.3
20260504223324 60 229 4.0 15.0 0.00 0.00 0.00 14 1020.4
20260504221816 59 246 10.0 18.0 0.00 0.00 0.00 16 1020.5
20260504220331 59 199 7.0 16.0 0.00 0.00 0.00 20 1020.6
20260504214829 58 268 7.0 17.0 0.00 0.00 0.00 21 1021.0
20260504213324 57 256 6.0 15.0 0.00 0.00 0.00 20 1021.4
20260504211817 58 269 7.0 16.0 0.00 0.00 0.00 19 1021.6
20260504210330 57 203 6.0 16.0 0.00 0.00 0.00 21 1021.7
20260504204824 57 253 6.0 16.0 0.00 0.00 0.00 18 1021.8
20260504203339 56 257 7.0 18.0 0.00 0.00 0.00 18 1022.2
20260504201832 56 256 6.0 18.0 0.00 0.00 0.00 20 1022.4
20260504200318 56 249 5.0 15.0 0.00 0.00 0.00 21 1022.6
20260504194812 57 233 7.0 17.0 0.00 0.00 0.00 19 1022.7
20260504193334 57 231 7.0 14.0 0.00 0.00 0.00 19 1022.5
20260504191826 57 257 6.0 17.0 0.00 0.00 0.00 20 1022.7
20260504190318 57 267 6.0 13.0 0.00 0.00 0.00 19 1022.8
20260504184852 57 276 4.0 13.0 0.00 0.00 0.00 21 1022.7
20260504183347 56 278 7.0 17.0 0.00 0.00 0.00 21 1022.9
20260504181837 56 266 4.0 16.0 0.00 0.00 0.00 24 1022.7
20260504180336 57 211 6.0 15.0 0.00 0.00 0.00 26 1023.1
20260504174822 57 224 4.0 14.0 0.00 0.00 0.00 27 1023.1
20260504173316 56 271 4.0 15.0 0.00 0.00 0.00 28 1022.9
20260504171830 55 264 7.0 14.0 0.00 0.00 0.00 30 1023.1
20260504170345 55 231 4.0 11.0 0.00 0.00 0.00 34 1022.9
20260504160320 51 285 2.0 12.0 0.00 0.00 0.00 39 1023.1
20260504150338 49 275 5.0 7.0 0.00 0.00 0.00 41 1023.4
20260504140312 47 268 3.0 9.0 0.00 0.00 0.00 45 1023.5
20260504130312 47 260 1.0 4.0 0.00 0.00 0.00 49 1023.1
20260504110324 39 262 0.0 0.0 0.00 0.00 0.00 64 1021.9
20260504100319 42 262 0.0 0.0 0.00 0.00 0.00 59 1022.1
20260504081819 49 261 0.0 3.0 0.00 0.00 0.00 48 1022.9
20260504080333 49 260 2.0 8.0 0.00 0.00 0.00 47 1023.1
20260504070323 46 278 0.0 3.0 0.00 0.00 0.00 52 1023.8
20260504050320 51 273 3.0 9.0 0.00 0.00 0.00 32 1024.0
20260504044814 51 120 0.0 6.0 0.00 0.00 0.00 31 1024.1